Theta_e
348 348 347 346 348 349 349 350 353 353 354 356 356 356 358 358 359 361 361 360 360 360 359 357 353 347 343 343 343 342 343 344 343 342 344 344 345 346 343 343 347 349 347 343 342 340 338 340 343 344 343 339 336 333 330 326 324 325 326 329 336 336 333
346 346 346 345 346 348 349 349 351 353 355 358 357 356 357 357 358 360 360 361 361 360 359 357 353 347 342 342 344 345 346 346 344 343 343 343 344 344 344 345 347 349 350 346 341 338 337 340 341 342 343 340 335 329 325 322 321 322 321 320 325 326 325
344 344 344 345 346 348 350 349 349 352 354 357 357 357 356 357 358 358 359 360 361 361 360 357 353 347 343 343 345 347 348 347 345 344 343 342 341 343 346 349 348 347 347 344 342 341 342 343 342 342 344 343 337 331 325 321 318 318 319 318 319 320 319
343 345 346 346 346 348 351 350 350 353 356 357 358 357 357 357 357 357 358 359 360 360 360 358 354 347 343 343 345 348 350 349 347 344 342 340 341 341 344 348 348 345 343 343 344 346 346 346 344 343 344 340 335 331 324 319 318 317 319 319 319 319 319
346 345 345 345 345 347 351 351 351 354 357 357 357 357 357 357 357 357 357 357 359 359 358 358 356 348 342 343 345 347 349 349 348 345 341 340 340 341 342 344 344 344 342 343 345 346 347 348 346 344 341 336 331 329 323 318 317 318 318 320 320 319 320
348 346 344 345 343 345 349 350 351 353 356 358 358 358 359 358 357 358 357 358 360 361 360 359 355 347 342 344 345 346 348 351 351 346 342 340 340 340 342 341 342 342 341 342 345 346 345 346 345 342 338 333 330 326 322 319 318 318 319 320 320 320 320
345 345 343 343 343 344 347 348 350 352 355 357 358 358 359 359 358 358 358 359 361 363 361 358 353 346 342 343 345 345 348 352 353 348 344 343 341 339 340 340 341 341 339 341 343 345 344 342 341 340 336 332 329 325 320 318 318 318 320 320 321 322 321
341 343 342 342 344 344 345 347 351 353 354 355 357 359 359 360 359 357 358 361 363 365 363 359 352 345 343 344 345 346 347 352 354 350 347 347 345 341 338 339 340 340 338 340 341 342 343 341 338 338 336 331 329 325 320 318 319 318 320 321 321 322 321
339 341 342 343 344 344 343 346 348 350 351 351 354 357 359 360 360 357 359 361 363 364 365 361 354 348 345 345 346 346 347 352 353 350 347 348 347 343 339 339 340 337 336 337 340 341 341 339 337 337 336 333 330 325 321 318 319 318 320 322 322 321 321
339 341 342 343 345 345 344 345 346 347 348 348 349 353 359 361 361 360 360 361 362 364 364 362 359 356 351 346 347 348 349 351 352 350 348 347 345 341 338 339 337 333 333 335 340 343 341 339 337 337 337 335 332 327 322 319 318 319 321 323 323 322 321
341 343 343 345 346 346 345 346 347 348 349 350 350 353 358 361 362 362 360 360 361 362 363 361 360 361 356 350 351 351 350 350 350 350 348 345 343 339 337 339 339 335 333 334 340 343 341 339 339 339 338 337 334 328 323 321 319 318 321 324 324 323 322
344 343 343 345 346 345 345 346 347 348 348 350 353 355 358 360 362 362 360 359 360 359 360 359 358 360 360 357 356 354 350 348 348 348 346 344 346 343 338 341 344 342 336 333 338 341 341 340 340 340 340 338 336 331 326 322 319 318 321 323 325 326 325
345 344 344 348 346 344 344 345 346 348 349 353 356 356 357 359 361 362 360 358 357 356 357 357 356 357 360 362 360 357 352 348 344 343 343 345 348 348 344 344 346 347 344 339 338 339 340 341 341 340 340 339 338 334 329 325 321 319 320 322 325 328 326
343 344 348 351 349 345 346 345 345 347 349 354 358 357 357 358 359 360 359 357 355 354 354 355 355 354 357 361 362 359 355 348 340 338 340 343 348 350 350 348 347 349 351 348 345 343 341 341 342 341 341 341 339 337 333 329 324 320 319 321 325 329 327
345 348 355 357 354 350 348 349 350 349 349 354 359 359 357 357 357 359 358 355 352 352 353 353 354 353 353 357 361 362 358 350 343 339 339 343 347 348 349 350 349 350 352 351 351 350 348 345 343 343 343 342 341 339 336 332 328 323 320 320 323 328 327
342 346 354 356 355 352 348 347 351 353 355 358 360 359 357 356 357 358 356 353 350 350 351 352 352 352 352 354 358 361 360 355 351 347 343 345 346 344 345 348 350 351 351 350 350 351 351 350 347 345 345 344 343 341 339 336 332 327 323 320 322 326 327
336 338 343 346 351 353 347 343 347 351 355 360 361 360 358 356 357 357 356 352 350 349 350 351 352 352 352 353 356 359 360 358 357 354 351 349 346 345 345 346 348 350 350 350 350 351 351 351 350 349 347 345 344 342 341 338 334 331 326 321 321 325 327
337 336 337 343 351 354 349 344 344 346 349 354 358 360 359 358 358 358 356 353 350 350 350 351 352 352 352 354 356 358 359 358 359 360 358 355 351 349 349 349 350 351 351 352 352 352 351 350 350 350 348 347 345 344 342 340 337 335 330 323 320 324 327
337 335 337 343 349 352 352 350 346 343 343 347 354 358 358 359 360 359 359 355 351 351 350 351 353 353 352 353 355 358 359 359 361 362 361 360 357 355 354 354 354 353 354 354 353 352 351 350 350 349 348 347 347 346 344 342 340 338 334 325 320 323 327
337 335 336 341 346 350 354 355 351 345 343 345 348 352 355 358 361 361 360 358 354 352 352 352 354 354 354 354 355 358 360 361 362 363 363 364 362 360 358 356 356 355 355 355 354 353 352 350 350 350 348 348 347 346 345 344 342 341 338 329 321 321 326
336 336 334 336 343 348 350 352 353 350 348 346 348 353 357 359 360 361 361 360 358 356 354 353 354 355 355 355 357 359 361 362 364 366 366 365 364 362 360 358 357 357 356 355 354 353 353 352 351 350 349 348 347 346 346 344 342 341 339 334 324 320 324
335 336 336 334 338 343 345 347 350 350 349 351 353 356 359 361 361 362 363 361 360 359 358 355 355 357 358 358 359 362 363 364 366 367 366 365 363 361 359 358 358 356 355 354 354 354 354 353 352 351 350 349 347 346 345 344 342 341 340 338 329 321 323
333 333 335 335 333 337 342 345 350 352 352 355 357 356 356 360 363 364 363 361 361 361 360 357 357 359 360 361 362 363 364 365 366 366 365 363 361 359 358 358 356 354 354 353 353 353 353 352 352 351 350 349 348 347 345 343 342 341 341 340 333 324 324
332 331 332 334 333 335 341 342 347 355 356 355 356 356 355 360 364 364 362 362 362 361 361 361 362 362 362 363 364 364 366 366 365 364 363 361 359 357 355 353 352 352 353 353 353 354 353 352 352 351 350 349 347 346 345 344 343 342 341 339 332 325 325
331 330 330 332 331 333 341 340 340 350 357 356 356 357 356 358 363 365 362 362 363 362 362 362 363 364 365 365 366 366 365 365 364 362 360 358 356 354 351 349 350 351 352 353 354 354 352 351 351 349 348 347 345 344 344 342 341 340 338 334 330 328 328
331 331 330 331 331 331 339 343 341 348 357 358 355 355 356 357 363 365 362 362 363 362 362 363 365 367 367 367 367 367 365 363 361 359 357 355 353 351 350 349 349 349 350 352 353 353 351 351 350 348 347 345 343 343 342 341 340 339 337 334 332 332 332
336 335 332 332 331 329 334 344 347 350 355 355 351 353 357 359 362 363 362 362 363 363 362 364 367 368 368 368 367 365 363 361 358 355 352 351 349 349 349 347 345 344 345 348 349 350 350 350 349 348 346 344 343 342 341 340 339 338 337 334 332 333 333
338 338 340 340 340 340 344 351 354 357 359 356 351 354 359 361 363 363 362 362 365 366 365 366 368 369 369 367 366 364 362 358 353 349 347 346 347 349 348 345 341 337 339 344 346 347 348 348 348 347 345 343 342 341 340 339 338 337 337 335 334 334 335
339 340 347 355 356 355 358 360 360 362 363 359 356 358 361 363 363 362 362 365 366 367 367 368 369 369 368 366 364 363 360 351 344 342 342 343 347 349 346 343 343 341 342 344 346 347 347 347 346 345 344 342 341 340 339 338 337 337 337 336 336 335 335
350 345 348 358 360 358 360 361 359 358 360 360 361 362 363 364 364 363 364 367 368 368 369 369 369 369 367 364 360 356 350 344 344 347 345 344 347 348 347 347 347 346 345 345 346 347 346 345 344 343 342 341 341 340 339 339 338 338 337 336 335 334 335
357 353 352 356 359 359 360 359 356 356 359 362 363 364 365 365 364 365 366 367 367 369 370 369 368 366 361 356 353 351 349 350 353 351 347 345 346 345 346 349 348 346 347 347 346 346 345 343 342 341 341 341 341 340 340 340 340 339 337 336 336 335 336
349 348 347 349 354 358 359 356 355 359 363 364 364 364 366 365 364 366 368 368 369 370 369 367 364 359 354 353 354 354 352 350 348 345 344 345 346 346 348 350 348 347 348 348 347 346 345 343 342 342 341 341 341 341 341 341 340 339 338 337 337 336 334
350 351 350 352 355 357 357 356 360 365 368 369 368 368 367 366 366 367 368 369 369 367 364 360 356 351 350 351 350 348 346 342 341 344 346 347 349 350 350 349 348 348 348 347 346 345 344 343 343 343 342 342 342 342 341 341 340 340 338 338 337 334 329
354 356 356 358 359 359 359 361 364 367 369 369 369 369 369 368 368 368 367 366 363 358 351 346 343 342 342 341 340 341 341 341 343 346 348 349 350 351 350 349 349 348 347 346 344 343 343 342 342 343 343 343 342 342 342 341 340 339 338 337 335 330 325
354 354 355 356 355 355 357 360 361 362 363 363 365 365 364 363 362 360 357 354 349 343 338 335 335 336 337 338 340 342 342 344 346 347 348 349 350 349 349 348 348 347 345 344 343 342 343 343 343 343 343 343 342 341 341 340 339 337 336 334 331 328 326
354 354 355 355 353 351 352 353 354 354 353 354 356 356 354 354 354 349 342 338 337 334 333 334 335 337 338 340 342 343 344 347 348 348 347 348 348 348 348 347 346 345 344 343 342 343 343 343 343 343 342 342 341 340 340 339 338 336 334 333 331 329 329
351 353 354 354 353 352 351 350 349 349 348 347 347 347 347 350 351 346 336 332 333 332 331 333 337 341 344 345 345 345 346 348 348 347 347 346 346 346 346 346 345 343 342 342 342 342 342 341 341 341 341 340 339 338 337 338 337 335 333 331 330 329 329
346 348 350 351 350 349 349 349 349 349 350 351 351 352 353 355 354 350 342 334 332 335 337 340 344 347 349 348 347 345 345 346 347 346 345 345 345 345 345 345 344 342 342 342 341 340 340 339 339 340 339 337 336 336 335 335 335 333 331 329 328 327 327
Wind_Speed
26 26 27 27 29 32 33 35 38 40 40 42 45 45 43 41 40 40 40 41 41 41 40 39 39 38 38 36 35 33 32 32 30 29 28 26 24 23 23 21 20 20 20 19 19 18 17 15 16 16 13 13 16 17 16 14 13 14 16 19 18 14 12
31 27 28 29 30 34 36 37 38 40 41 41 44 45 44 43 43 42 42 42 42 42 41 40 39 40 39 37 35 34 33 32 31 30 30 28 26 24 23 22 22 22 20 20 19 19 17 17 18 17 15 15 15 15 14 12 13 14 14 16 19 18 14
33 29 29 30 30 33 38 39 39 41 41 40 42 46 46 45 45 45 44 43 43 42 42 41 40 40 39 38 36 35 34 33 32 32 31 30 28 27 25 24 23 22 22 21 20 18 17 17 19 18 17 17 16 15 14 12 12 14 14 14 17 17 14
35 33 30 30 30 32 37 38 38 39 41 40 40 44 47 47 46 46 45 44 44 43 43 41 41 41 40 39 38 37 35 34 33 33 32 31 30 29 27 26 25 24 23 23 21 20 18 17 19 20 21 19 17 15 15 13 12 13 15 15 16 16 14
39 37 32 31 30 29 33 36 36 37 38 39 39 42 45 47 47 46 46 45 44 44 43 42 41 41 41 40 39 38 37 35 34 33 33 32 31 31 30 29 28 26 25 25 24 23 21 21 22 23 23 21 19 17 16 14 13 14 16 16 16 17 15
38 39 32 31 28 27 30 33 32 34 35 36 37 39 42 43 45 45 45 45 44 43 43 42 42 41 42 41 40 39 38 36 35 34 33 32 31 32 32 32 31 29 27 26 26 25 25 26 26 26 25 23 21 20 18 16 15 15 17 18 18 17 15
35 40 35 32 27 25 28 29 29 31 33 33 33 35 38 40 42 42 42 43 43 42 43 43 42 42 42 42 41 40 39 37 36 35 34 33 32 33 34 34 32 31 29 28 28 28 28 28 28 27 26 25 23 22 19 17 16 16 18 19 18 17 16
30 38 36 33 30 26 25 26 27 29 30 32 33 34 37 39 41 42 42 42 42 42 43 44 43 43 42 42 42 41 39 38 37 36 35 34 33 34 35 35 34 32 30 30 30 31 31 30 29 28 27 26 24 23 21 18 18 18 18 19 19 17 16
27 37 38 34 32 28 25 25 27 30 33 35 35 37 38 39 40 42 43 42 42 42 42 43 43 42 42 42 42 41 40 38 37 37 36 36 35 35 36 36 35 34 33 32 32 33 33 32 30 29 29 28 26 25 24 21 20 20 19 18 18 17 17
25 38 41 36 34 30 27 27 28 32 37 39 40 40 41 41 40 41 42 42 41 42 42 41 40 40 42 42 42 41 40 39 38 37 37 37 37 37 37 37 37 36 35 34 34 35 35 34 32 31 32 31 29 28 27 25 23 22 21 18 17 17 17
23 35 36 33 35 33 30 30 31 35 39 41 44 45 44 43 41 40 42 42 42 41 41 40 39 38 41 42 42 42 41 40 39 38 38 39 39 38 38 38 37 37 36 35 35 36 36 35 34 35 35 34 33 31 29 28 26 25 24 20 17 17 17
27 35 35 34 36 35 34 35 35 39 41 42 45 46 45 44 42 40 41 42 41 40 40 40 39 38 39 41 42 42 42 42 41 41 40 40 39 39 39 38 37 37 37 37 37 38 37 37 37 37 37 37 35 33 31 29 28 27 26 23 19 18 18
26 27 30 32 34 33 33 34 36 39 40 41 44 45 44 45 43 40 41 42 40 39 40 40 40 39 39 40 41 41 43 43 43 43 42 41 39 38 38 39 38 37 37 38 38 39 39 39 39 38 38 38 37 35 33 31 30 29 28 25 21 20 20
24 25 28 29 30 30 28 30 34 37 38 39 41 44 44 44 44 42 41 42 40 38 39 40 41 41 41 40 39 40 42 44 44 44 43 42 40 39 38 38 38 37 37 37 38 39 40 40 39 39 38 39 38 37 35 34 32 30 29 27 24 22 22
23 25 26 25 26 29 27 27 30 33 37 38 39 42 43 42 43 43 42 42 42 39 38 40 42 42 42 41 40 41 42 42 43 43 43 42 41 40 40 39 38 38 38 38 37 37 36 37 39 39 38 38 38 38 37 36 34 32 30 29 27 25 24
23 23 22 20 24 28 27 25 26 28 33 36 37 40 42 42 43 44 43 42 43 41 38 40 42 43 44 44 42 41 41 41 42 43 43 43 42 42 42 40 39 39 39 39 38 36 35 35 37 38 37 38 38 39 39 38 36 34 31 30 29 27 25
24 26 25 26 27 28 26 25 26 28 30 33 36 38 41 42 42 43 42 40 42 43 40 40 43 44 44 45 44 42 41 40 40 41 42 43 43 43 42 41 40 39 39 39 38 37 34 34 36 37 36 37 39 39 39 38 38 36 31 31 31 29 26
29 27 24 29 29 27 27 28 28 29 29 32 35 37 39 40 41 41 42 40 41 43 41 40 43 45 45 44 44 43 42 41 40 40 40 41 42 43 42 41 40 39 38 38 36 35 34 34 35 36 36 36 37 38 38 39 39 36 33 32 32 29 26
33 29 22 27 32 31 30 32 31 27 27 31 34 37 40 41 41 41 43 42 40 41 41 40 42 45 46 45 44 43 43 42 40 39 39 39 40 40 40 40 40 39 38 37 36 34 34 34 36 37 37 36 35 36 37 39 38 35 34 33 32 30 27
27 28 25 23 31 35 32 31 30 27 25 28 30 34 38 41 42 42 41 39 38 40 42 40 40 44 47 45 43 43 43 42 40 39 38 37 37 37 37 38 38 38 37 38 37 36 36 36 36 37 37 37 36 35 35 37 37 34 33 33 33 31 28
23 26 26 23 27 34 32 29 30 28 26 26 27 29 34 38 39 39 39 38 38 40 42 40 39 42 46 45 43 42 42 41 40 38 37 36 35 34 34 34 34 35 35 35 35 35 36 37 37 38 39 39 38 36 35 36 36 34 33 33 33 32 30
29 26 25 24 25 29 30 29 29 29 27 27 28 29 32 35 36 35 36 37 37 39 41 40 38 40 44 44 43 42 42 41 40 39 38 36 34 32 31 31 30 31 30 30 30 32 34 35 36 37 39 38 38 37 35 35 36 34 33 32 32 33 31
35 32 28 28 31 30 28 28 28 29 29 28 29 29 29 31 34 34 35 36 36 38 39 38 38 40 42 43 43 42 42 42 41 40 37 35 33 31 30 30 29 28 28 28 29 29 29 31 32 32 34 36 37 37 36 35 35 35 34 33 32 33 32
35 35 33 32 34 34 31 31 29 30 31 30 29 29 28 30 33 34 36 36 36 38 39 37 38 40 41 42 43 43 42 41 40 38 35 32 31 29 27 27 27 28 28 27 25 22 21 23 23 23 26 29 32 34 34 33 34 35 34 32 30 31 31
37 38 38 39 41 39 33 35 35 33 33 32 31 30 29 30 33 35 38 38 37 39 40 38 38 40 41 42 42 41 41 39 37 35 33 30 28 24 22 21 22 23 23 21 19 18 17 18 18 18 20 21 22 24 26 28 31 33 32 30 29 29 29
36 37 38 40 43 43 35 34 37 37 37 35 32 31 30 32 34 37 40 40 38 40 41 40 39 40 40 39 38 38 38 36 34 32 30 27 24 23 21 20 18 19 19 18 18 18 18 18 17 18 19 18 17 18 20 23 26 28 28 28 27 26 25
20 25 32 36 40 44 41 37 39 40 39 35 31 31 32 33 36 38 40 41 40 39 41 41 39 38 37 36 35 33 32 30 28 27 26 25 24 23 22 21 19 19 20 19 18 19 21 22 20 20 19 18 16 17 19 21 24 26 26 26 27 25 23
13 17 19 20 25 31 33 36 37 35 33 30 29 31 33 35 37 39 40 41 40 38 39 39 38 36 35 33 30 28 27 26 25 25 26 26 25 24 23 21 20 21 21 19 18 19 22 23 23 22 21 17 16 18 20 21 22 23 23 24 25 24 21
11 9 6 3 11 18 23 28 29 27 25 25 27 30 33 35 38 39 40 40 38 36 37 38 37 36 34 32 30 28 27 26 26 27 27 26 26 26 24 22 20 19 19 19 20 22 22 21 21 22 20 17 16 19 20 21 22 23 23 23 23 22 21
2 4 3 4 9 13 16 20 22 21 20 22 26 30 32 35 39 39 38 37 36 35 37 38 37 36 35 33 31 29 28 27 26 27 27 27 28 27 25 22 19 17 18 20 21 21 20 18 18 17 15 13 14 16 17 19 21 22 23 24 23 22 22
9 4 0 2 3 8 11 13 15 17 19 22 26 28 30 34 38 38 36 35 36 37 38 38 37 36 35 33 30 28 27 25 25 26 26 26 26 25 24 22 20 19 20 19 19 19 18 15 12 11 10 11 12 14 15 16 16 17 17 18 19 20 20
3 3 3 3 3 5 9 10 13 18 21 24 27 30 31 35 39 38 37 37 37 38 38 38 37 35 32 30 28 26 25 25 25 25 23 22 22 22 22 21 20 21 21 19 19 20 17 13 9 9 10 12 14 15 16 16 15 15 15 15 16 17 17
5 8 8 4 6 8 11 14 17 21 22 23 26 29 31 36 40 39 36 36 37 38 38 37 36 33 30 29 28 26 25 25 25 22 20 19 19 19 20 19 18 19 20 18 18 19 17 14 12 12 12 12 14 17 18 16 14 14 15 16 17 17 17
16 15 13 10 10 10 12 16 20 22 23 24 24 25 29 34 35 33 32 33 34 34 34 32 31 30 29 28 28 26 24 24 23 22 21 20 19 19 19 18 16 16 18 17 15 15 14 13 14 14 14 14 15 16 17 16 14 14 15 18 19 19 19
23 21 18 15 14 13 15 18 21 22 23 23 24 26 30 31 30 28 29 31 30 30 29 28 28 28 27 27 26 24 23 22 20 20 22 22 21 21 21 18 15 15 16 15 14 14 13 12 13 13 14 14 15 15 15 15 14 13 15 18 20 21 21
23 23 23 22 21 20 20 21 22 23 23 23 25 28 30 28 27 27 29 29 28 28 28 27 27 26 26 25 24 22 21 21 19 19 21 22 22 22 21 18 16 16 15 14 15 16 15 12 12 13 13 13 13 13 13 14 13 12 15 19 20 20 21
23 24 24 24 25 25 24 24 25 25 24 24 25 27 26 24 22 23 25 26 25 24 24 24 25 23 21 21 21 21 21 22 21 20 18 18 20 21 21 19 18 16 15 14 14 16 14 10 9 11 12 10 10 11 13 14 13 12 14 16 16 16 16
24 24 24 25 26 26 25 25 25 25 24 23 24 24 24 22 20 19 20 20 19 19 20 22 22 21 20 20 19 19 21 22 20 17 15 17 20 22 20 20 20 18 17 15 14 12 11 11 11 12 11 9 9 10 12 13 13 12 11 12 13 13 13
Wind_Direction
206 203 201 206 205 203 206 207 203 204 207 208 206 204 201 201 202 201 202 204 204 204 204 205 205 207 210 212 213 214 214 215 215 214 212 212 211 211 215 216 207 206 214 217 217 224 225 218 211 217 228 218 206 212 224 226 216 203 198 189 186 204 207
198 197 196 202 205 203 204 206 206 205 205 206 206 204 202 201 202 202 202 203 205 204 205 205 205 207 210 211 211 211 213 213 213 213 213 212 211 211 213 214 211 207 210 220 223 224 221 211 212 219 223 221 216 219 223 221 214 209 209 202 200 210 207
187 192 195 199 203 203 203 205 208 207 205 205 204 203 203 202 202 203 203 203 204 204 205 205 205 207 209 211 210 210 212 211 211 213 213 213 211 210 209 211 216 212 212 223 225 218 213 208 210 214 220 224 223 223 223 218 214 212 212 207 203 210 209
178 188 194 197 203 203 203 204 206 206 204 203 202 202 204 204 202 203 204 204 205 204 205 205 205 206 209 210 210 209 211 211 211 213 214 213 211 209 209 211 216 217 216 219 220 215 211 210 208 208 215 225 224 222 222 219 214 212 214 212 205 206 206
172 184 193 194 200 201 201 204 205 206 205 203 204 204 204 204 203 203 204 205 205 205 206 205 206 208 209 210 210 209 211 211 210 212 214 213 211 209 211 214 217 219 218 217 218 216 211 212 214 214 218 224 224 223 223 221 214 211 214 214 208 205 203
175 180 186 188 195 198 200 205 207 207 207 205 206 205 202 202 201 201 202 204 204 204 205 206 208 210 209 209 210 210 210 210 210 212 213 213 211 210 211 216 219 220 221 220 219 218 215 218 223 225 226 226 225 225 223 220 216 212 212 214 211 207 203
184 176 178 182 189 196 199 204 206 206 208 207 208 207 201 200 200 199 200 201 201 201 204 207 210 211 209 209 210 211 211 210 210 212 213 212 211 211 213 216 219 220 222 222 222 222 221 224 228 230 230 229 227 227 225 220 218 215 212 212 212 206 202
195 173 174 180 185 190 191 195 198 200 204 205 208 210 204 200 200 198 198 199 198 198 202 207 211 211 209 208 209 211 211 211 211 212 213 211 209 212 215 216 218 220 222 223 226 227 227 228 231 233 233 232 230 228 227 221 217 218 217 214 212 206 203
203 173 175 183 184 182 181 189 197 200 203 205 209 213 208 201 200 199 197 197 196 197 199 204 209 211 209 208 209 211 210 209 211 213 214 212 211 214 219 219 219 222 224 224 226 229 231 233 235 235 234 235 233 230 228 223 217 217 219 219 216 210 207
204 173 175 181 181 180 183 192 200 205 209 210 211 213 208 202 201 199 198 198 197 196 198 200 203 207 209 209 209 210 209 208 211 215 216 216 216 219 223 223 225 226 227 226 224 227 232 235 237 237 236 235 234 232 230 226 220 216 218 224 223 217 215
186 168 170 174 175 181 188 192 197 202 207 208 207 207 205 201 201 201 200 199 197 196 196 197 197 200 207 210 209 209 210 210 212 215 218 219 219 222 225 226 228 229 230 227 224 226 233 236 236 236 235 235 235 235 233 229 225 220 219 225 229 224 224
159 163 169 173 177 183 188 190 195 201 204 206 204 202 202 201 201 202 202 200 198 196 196 197 196 196 202 208 208 209 211 212 213 216 220 221 219 221 225 225 226 229 232 231 227 228 234 237 237 236 236 235 234 236 235 232 229 225 223 227 230 227 226
147 166 172 173 179 185 188 189 195 200 202 204 203 200 202 202 201 203 204 202 200 197 196 198 197 197 200 204 206 208 211 213 215 217 220 220 216 217 221 223 224 226 230 232 229 231 235 237 237 238 237 236 234 235 235 233 232 229 226 228 228 225 224
154 174 177 176 180 184 188 191 196 200 201 202 202 200 201 203 202 203 206 204 201 199 198 198 198 198 200 202 204 207 210 215 218 219 220 219 215 214 217 220 221 222 225 227 228 230 234 237 239 238 237 236 235 234 234 232 232 231 228 228 227 223 221
167 177 171 172 178 182 189 193 194 200 201 201 202 200 200 203 203 204 206 205 203 201 199 199 199 199 200 203 205 207 211 215 218 220 220 218 216 215 216 218 219 219 223 227 227 226 227 234 240 240 238 236 233 232 233 232 232 232 232 230 227 224 221
189 191 174 173 183 187 193 195 193 197 200 199 200 199 200 202 203 204 206 205 203 201 200 200 200 199 200 204 207 208 211 215 217 218 218 217 218 219 219 218 218 219 222 226 228 225 222 227 236 240 239 237 233 231 232 233 234 235 236 234 231 226 222
227 217 193 188 195 194 193 196 195 197 200 200 200 201 202 203 204 205 205 205 203 202 201 201 201 200 201 204 207 208 211 215 216 216 216 216 219 221 221 220 220 220 222 226 229 229 225 224 231 237 238 237 236 234 234 236 238 240 238 236 232 226 222
244 240 205 187 195 200 196 194 194 196 201 205 204 203 203 204 205 205 204 205 204 201 201 202 202 201 201 203 206 207 211 215 216 215 216 216 218 220 221 220 220 221 222 223 227 229 228 225 228 234 236 236 237 237 237 239 243 244 242 236 230 226 224
231 239 220 189 192 204 202 195 193 196 201 205 205 205 205 206 206 206 205 206 205 202 200 202 204 202 200 201 204 206 210 213 214 214 215 216 217 218 218 219 219 221 222 222 224 227 229 228 227 231 234 235 236 237 237 242 247 247 244 238 231 226 225
228 229 230 210 197 200 199 194 195 200 202 203 206 208 207 207 207 208 208 207 206 203 200 201 203 202 199 199 202 205 207 209 211 213 214 214 215 215 216 218 220 221 223 225 227 228 230 231 229 230 233 235 237 237 236 242 247 247 245 240 233 228 227
248 226 225 224 205 197 196 197 200 202 203 204 206 205 203 205 207 208 208 208 208 205 201 200 203 201 197 197 200 202 204 206 208 209 210 212 214 215 217 221 223 224 226 231 234 234 234 234 232 233 236 238 238 237 236 240 246 249 248 243 235 230 229
256 238 227 231 224 210 202 201 205 208 207 202 198 197 198 201 204 203 203 206 207 204 200 201 203 199 194 195 198 199 202 204 205 206 209 213 217 220 222 223 224 225 228 232 235 235 234 235 236 238 241 240 239 239 239 240 245 249 251 248 240 231 229
253 250 247 243 242 236 222 209 205 207 206 199 193 196 200 198 198 199 199 202 204 202 199 201 201 195 190 192 196 199 202 204 207 210 214 218 221 223 224 223 224 225 224 225 227 229 232 235 238 241 242 242 242 243 241 240 245 250 254 253 243 230 226
253 254 257 253 252 250 234 216 207 201 201 201 196 196 198 194 194 197 197 198 200 197 195 198 197 191 188 191 196 199 201 204 209 213 217 220 222 223 222 218 218 219 218 217 216 216 221 229 231 233 238 242 244 246 245 243 246 251 252 250 240 228 228
249 249 250 250 255 255 233 212 209 204 199 200 197 193 194 192 192 195 195 196 196 193 191 194 193 189 189 192 196 200 203 206 211 215 218 219 216 215 214 208 205 206 207 207 205 203 211 224 224 221 229 236 238 244 246 244 243 247 247 243 235 230 233
243 244 243 240 244 251 238 211 203 202 198 197 196 193 193 192 192 193 194 193 193 190 188 190 191 189 189 191 194 200 204 208 211 210 210 209 204 202 204 200 194 194 194 195 198 198 206 222 228 224 228 230 228 235 242 236 234 239 240 235 231 231 234
257 258 252 240 237 243 237 212 196 196 197 198 197 192 189 190 191 193 193 191 190 189 187 187 188 187 187 189 193 198 200 201 199 196 195 198 197 196 198 196 194 195 195 194 196 197 202 213 220 222 226 227 225 230 237 235 233 236 237 234 233 233 235
280 293 280 249 230 227 216 196 185 186 188 193 194 189 185 187 189 190 190 189 187 186 184 183 183 182 182 182 183 184 184 184 186 185 188 193 193 190 194 197 198 201 202 198 199 205 209 213 217 220 222 224 223 225 229 231 233 235 234 234 234 234 235
247 278 320 108 165 177 173 170 172 173 177 185 187 183 182 185 185 186 187 185 182 181 180 179 178 176 174 172 170 171 175 181 184 185 187 188 186 187 195 199 198 200 202 199 201 210 215 216 221 227 227 223 223 227 230 231 230 230 232 234 235 238 241
54 223 236 113 143 157 157 164 170 169 174 180 179 178 181 184 183 182 181 180 177 176 175 174 171 168 166 167 169 172 178 182 181 181 183 183 183 187 195 195 193 198 203 205 207 212 217 222 229 230 225 215 218 228 234 235 234 234 236 237 237 239 243
48 76 49 49 141 153 154 167 172 168 171 175 174 176 180 181 178 174 174 174 173 171 169 166 164 163 164 166 168 171 175 175 173 178 184 184 184 190 195 193 193 200 206 211 214 216 223 235 237 223 209 206 214 224 230 231 233 235 234 230 228 231 235
22 78 69 343 266 182 161 171 172 163 162 165 170 172 173 173 172 168 165 165 164 163 162 160 159 160 161 161 164 166 169 171 175 180 184 183 185 191 194 195 199 204 207 211 215 219 228 239 229 209 204 205 210 221 229 230 230 230 229 224 222 224 226
71 95 112 152 208 188 166 163 159 152 147 150 157 160 158 161 164 162 157 157 160 162 162 161 160 160 159 161 165 167 171 175 176 174 172 173 178 183 190 198 205 208 211 214 215 220 228 227 211 206 211 212 213 222 231 236 234 228 224 220 218 217 219
85 90 108 135 162 167 156 148 145 144 141 138 142 148 153 156 157 156 156 159 164 166 164 162 163 162 162 166 168 168 171 174 172 167 167 170 174 178 187 199 206 207 211 215 214 215 217 212 205 205 211 219 223 223 227 234 236 226 216 212 212 213 216
92 95 97 104 120 134 134 129 130 133 134 133 136 146 153 152 149 152 158 162 164 161 157 157 159 160 161 165 166 167 171 169 165 169 175 176 176 179 183 189 196 203 209 208 202 201 203 206 210 212 212 219 225 224 223 229 231 222 212 210 211 215 219
90 94 92 93 102 112 113 113 116 119 120 125 133 137 138 136 138 147 153 153 152 153 153 155 157 159 162 166 168 170 168 161 163 178 184 180 181 184 184 186 193 202 205 203 199 201 208 215 221 217 212 216 222 221 220 227 229 219 211 212 216 221 225
87 92 92 91 96 102 102 103 106 107 108 114 122 124 122 120 124 135 144 147 150 155 158 159 158 156 157 163 167 165 160 159 171 186 188 183 187 189 186 187 193 195 196 199 201 203 208 218 223 218 217 223 226 218 212 218 224 221 214 215 219 221 221
84 88 90 90 92 96 97 98 101 103 104 108 111 112 112 111 112 122 134 141 146 150 152 151 147 143 147 158 161 159 161 168 177 184 184 182 186 187 186 189 193 194 194 198 202 205 211 220 223 222 223 226 224 217 213 216 222 222 214 209 206 204 206